Date String (YYYY-MM-DD hh:mm:ss) UTC,Instrument flags,Ambient pressure (hPa),Sample flow (lpm),Bypass flow (lpm),Sample temperature (°C),Ambient temperature (°C),ASC tube jacket temperature (°C),LED temperature (°C),Box temperature (°C),Sample RH (%),Span deviation,Mass concentration (μg/m³),Mass concentration (μg/m³),Mass concentration (μg/m³)
DateTimeUTC,F1_M11,P_M11,Q1_M11,Q2_M11,T1_M11,T2_M11,T3_M11,T4_M11,T5_M11,U1_M11,ZSPAN_M11,X0_M11,X2_M11,X1_M11
2023-04-10 04:00:00,,0837.8,4.99,0.00,28.9,27.2,00.0,37.2,30.4,06.8,0000.0,0012.85,0004.56,0002.22
2023-04-10 04:01:00,,0837.8,4.98,0.00,28.9,27.2,00.0,37.2,30.4,06.7,0000.0,0012.80,0004.61,0002.23
2023-04-10 04:02:00,,0837.8,4.99,0.00,28.9,27.2,00.0,37.2,30.4,06.5,0000.0,0012.89,0004.66,0002.26
2023-04-10 04:03:00,,0837.9,5.00,0.00,28.8,27.2,00.0,37.2,30.3,06.4,0000.0,0012.84,0004.64,0002.27
2023-04-10 04:04:00,,0837.9,5.00,0.00,28.8,27.2,00.0,37.2,30.2,06.2,0000.0,0012.72,0004.59,0002.26
2023-04-10 04:05:00,,0837.8,5.01,0.00,28.8,27.1,00.0,37.2,30.2,06.1,0000.0,0012.60,0004.46,0002.21
2023-04-10 04:06:00,,0837.9,5.00,0.00,28.8,27.0,00.0,37.2,30.2,05.9,0000.0,0012.73,0004.46,0002.21
2023-04-10 04:07:00,,0837.9,5.00,0.00,28.8,27.0,00.0,37.2,30.1,06.0,0000.0,0012.31,0004.50,0002.21
2023-04-10 04:08:00,,0838.0,5.00,0.00,28.7,26.9,00.0,37.2,30.1,06.1,0000.0,0012.16,0004.56,0002.23
2023-04-10 04:09:00,,0838.0,5.00,0.00,28.7,26.9,00.0,37.1,30.1,06.2,0000.0,0011.76,0004.50,0002.24
2023-04-10 04:10:00,,0838.0,5.00,0.00,28.7,26.9,00.0,37.1,30.1,06.3,0000.0,0010.74,0004.37,0002.22
2023-04-10 04:11:00,,0838.0,5.01,0.00,28.7,26.9,00.0,37.1,30.1,06.2,0000.0,0010.24,0004.32,0002.19
2023-04-10 04:12:00,,0838.2,5.01,0.00,28.7,26.9,00.0,37.1,30.1,06.3,0000.0,0010.03,0004.21,0002.19
2023-04-10 04:13:00,,0838.2,5.00,0.00,28.7,26.9,00.0,37.1,30.2,06.2,0000.0,0010.16,0004.17,0002.16
2023-04-10 04:14:00,,0838.2,4.99,0.00,28.7,27.0,00.0,37.1,30.2,06.2,0000.0,0010.42,0004.19,0002.15
2023-04-10 04:15:00,,0838.2,4.98,0.00,28.7,27.0,00.0,37.1,30.2,07.2,0000.0,0010.41,0004.20,0002.16
2023-04-10 04:16:00,,0838.2,4.99,0.00,28.7,27.0,00.0,37.1,30.2,07.6,0000.0,0010.53,0004.31,0002.21
2023-04-10 04:17:00,,0838.2,4.99,0.00,28.7,27.0,00.0,37.1,30.1,07.9,0000.0,0010.40,0004.34,0002.25
2023-04-10 04:18:00,,0838.2,5.01,0.00,28.7,27.0,00.0,37.1,30.1,07.8,0000.0,0010.31,0004.31,0002.26
2023-04-10 04:19:00,,0838.2,5.00,0.00,28.7,27.0,00.0,37.1,30.1,07.8,0000.0,0010.32,0004.30,0002.28
2023-04-10 04:20:00,,0838.2,5.00,0.00,28.7,26.9,00.0,37.0,30.1,07.6,0000.0,0010.48,0004.34,0002.30
2023-04-10 04:21:00,,0838.1,4.99,0.00,28.7,26.9,00.0,37.0,30.1,07.3,0000.0,0010.85,0004.43,0002.35
2023-04-10 04:22:00,,0838.2,5.00,0.00,28.7,26.9,00.0,37.0,30.1,07.3,0000.0,0010.69,0004.40,0002.37
2023-04-10 04:23:00,,0838.2,5.00,0.00,28.6,26.9,00.0,37.0,30.1,07.4,0000.0,0010.92,0004.42,0002.38
2023-04-10 04:24:00,,0838.2,4.99,0.00,28.6,26.9,00.0,37.0,30.0,09.1,0000.0,0010.75,0004.41,0002.41
2023-04-10 04:25:00,,0838.2,5.00,0.00,28.6,26.8,00.0,37.0,30.0,10.6,0000.0,0011.35,0004.42,0002.44
2023-04-10 04:26:00,,0838.2,5.00,0.00,28.6,26.8,00.0,37.0,30.0,11.2,0000.0,0011.58,0004.44,0002.47
2023-04-10 04:27:00,,0838.2,5.01,0.00,28.6,26.7,00.0,37.0,29.9,11.5,0000.0,0011.31,0004.38,0002.50
2023-04-10 04:28:00,,0838.2,5.01,0.00,28.6,26.7,00.0,37.0,29.9,11.6,0000.0,0011.20,0004.38,0002.53
2023-04-10 04:29:00,,0838.2,5.00,0.00,28.6,26.7,00.0,37.0,29.9,11.8,0000.0,0011.21,0004.39,0002.56
2023-04-10 04:30:00,,0838.2,5.01,0.00,28.5,26.6,00.0,36.9,29.9,11.9,0000.0,0011.53,0004.40,0002.58
2023-04-10 04:31:00,,0838.2,4.99,0.00,28.5,26.6,00.0,36.9,29.9,12.0,0000.0,0011.58,0004.35,0002.60
2023-04-10 04:32:00,,0838.2,4.99,0.00,28.5,26.6,00.0,36.9,29.9,12.1,0000.0,0011.99,0004.31,0002.61
2023-04-10 04:33:00,,0838.3,5.00,0.00,28.5,26.6,00.0,36.9,29.8,12.1,0000.0,0012.42,0004.33,0002.66
2023-04-10 04:34:00,,0838.3,5.01,0.00,28.5,26.5,00.0,36.9,29.8,12.0,0000.0,0012.40,0004.30,0002.73
2023-04-10 04:35:00,,0838.3,5.01,0.00,28.4,26.5,00.0,36.9,29.8,12.1,0000.0,0013.23,0004.30,0002.78
2023-04-10 04:36:00,,0838.3,4.99,0.00,28.4,26.5,00.0,36.9,29.8,12.1,0000.0,0012.47,0004.24,0002.81
2023-04-10 04:37:00,,0838.3,5.00,0.00,28.4,26.4,00.0,36.9,29.7,12.2,0000.0,0012.19,0004.21,0002.86
2023-04-10 04:38:00,,0838.3,5.00,0.00,28.4,26.4,00.0,36.8,29.7,12.0,0000.0,0012.22,0004.25,0002.88
2023-04-10 04:39:00,,0838.4,5.00,0.00,28.3,26.4,00.0,36.8,29.7,12.0,0000.0,0012.45,0004.28,0002.89
2023-04-10 04:40:00,,0838.4,5.00,0.00,28.3,26.3,00.0,36.8,29.7,12.0,0000.0,0012.84,0004.29,0002.91
2023-04-10 04:41:00,,0838.4,5.01,0.00,28.3,26.3,00.0,36.8,29.7,12.1,0000.0,0012.90,0004.33,0002.92
2023-04-10 04:42:00,,0838.4,5.01,0.00,28.3,26.3,00.0,36.8,29.7,12.2,0000.0,0012.49,0004.32,0002.94
2023-04-10 04:43:00,,0838.4,5.00,0.00,28.3,26.3,00.0,36.8,29.7,12.2,0000.0,0013.21,0004.34,0002.97
2023-04-10 04:44:00,,0838.4,5.00,0.00,28.3,26.3,00.0,36.8,29.7,12.3,0000.0,0012.55,0004.31,0002.98
2023-04-10 04:45:00,,0838.5,5.00,0.00,28.3,26.4,00.0,36.7,29.7,12.3,0000.0,0012.46,0004.34,0002.98
2023-04-10 04:46:00,,0838.6,5.00,0.00,28.3,26.4,00.0,36.7,29.7,12.4,0000.0,0011.45,0004.36,0003.00
2023-04-10 04:47:00,,0838.6,5.00,0.00,28.3,26.4,00.0,36.7,29.7,12.4,0000.0,0011.66,0004.42,0003.02
2023-04-10 04:48:00,,0838.6,5.00,0.00,28.3,26.4,00.0,36.7,29.7,12.5,0000.0,0011.50,0004.45,0003.01
2023-04-10 04:49:00,,0838.5,4.99,0.00,28.2,26.4,00.0,36.7,29.7,12.5,0000.0,0011.81,0004.45,0003.00
2023-04-10 04:50:00,,0838.6,4.99,0.00,28.2,26.4,00.0,36.7,29.7,12.5,0000.0,0011.76,0004.42,0002.99
2023-04-10 04:51:00,,0838.7,5.00,0.00,28.2,26.4,00.0,36.7,29.7,12.5,0000.0,0011.74,0004.42,0002.99
2023-04-10 04:52:00,,0838.6,4.99,0.00,28.2,26.4,00.0,36.7,29.7,12.5,0000.0,0011.87,0004.40,0002.99
2023-04-10 04:53:00,,0838.7,5.00,0.00,28.2,26.4,00.0,36.6,29.7,12.5,0000.0,0012.18,0004.44,0003.00
2023-04-10 04:54:00,,0838.7,5.00,0.00,28.2,26.4,00.0,36.6,29.7,12.6,0000.0,0011.03,0004.43,0002.98
2023-04-10 04:55:00,,0838.7,5.00,0.00,28.2,26.3,00.0,36.6,29.6,12.7,0000.0,0011.36,0004.46,0002.97
2023-04-10 04:56:00,,0838.8,5.00,0.00,28.2,26.3,00.0,36.6,29.6,12.7,0000.0,0011.38,0004.44,0002.94
2023-04-10 04:57:00,,0838.8,5.00,0.00,28.2,26.3,00.0,36.6,29.6,12.8,0000.0,0011.38,0004.43,0002.91
2023-04-10 04:58:00,,0838.8,5.00,0.00,28.2,26.3,00.0,36.6,29.6,12.9,0000.0,0011.33,0004.40,0002.87
2023-04-10 04:59:00,,0838.8,5.01,0.00,28.2,26.3,00.0,36.6,29.6,12.9,0000.0,0011.53,0004.37,0002.85
